Location: Greenwich
(51.4790°N, 0.0090°E)
Time: 23:57:37
(UTC+01:00)

Vanguard 3 - Pass Details

Date: 26 April 2024
Orbit: 509 x 3232 km, 33.3° (Epoch: 26 May)

Event Time Altitude Azimuth Distance (km) Brightness Sun altitude
Exits shadow 03:06:09 21° 196° (SSW) 4,776 10.4 -19.2°
Maximum altitude 03:13:07 28° 164° (SSE) 3,907 10.2 -18.6°
Drops below altitude 10° 03:23:00 10° 112° (ESE) 4,304 11.0 -17.7°
Sets 03:26:27 0° 101° (E) 4,921 11.5 -17.3°
